User: anonymous   Login
Location: Unspecified
(0.0000°N, 0.0000°E)
Time: 13:27:00
(UTC+01:00)
Language:

Cosmos 1263 Rocket - Orbit

View from above orbital plane
View from above orbital plane
View from above satellite
View from above satellite

Ground track
Ground track

The orbit data is extracted from the following two-line orbital elements,

1 12389U 81033B   15024.72975124  .00055363 -38629-6  49418-3 0  2301
2 12389 082.8644 250.9628 0144077 027.8929 012.7517 15.55845973743862
Epoch (UTC): 24 January 2015 17:30:50
Eccentricity: 0.0144077
inclination: 82.8644°
perigee height: 302 km
apogee height: 497 km
right ascension of ascending node: 250.9628°
argument of perigee: 27.8929°
revolutions per day: 15.55845973
mean anomaly at epoch: 12.7517°
orbit number at epoch: 74386

The dashed part of the orbit path shows where the satellite is in the earth's shadow,  

DLR